GW3799 Weather Reports


Display with metric or nautical units.
time (UTC)temp
F
wind
direction
speed
MPH
gust
MPH
rain 1hr
in
rain 24hr
in
rain mn
in
humidity
%
barometer
mb
20260505211055 84 360 4.0 9.0 0.00 0.00 0.00 27 1006.6
20260505210557 84 304 5.0 11.0 0.00 0.00 0.00 27 1006.6
20260505210059 84 288 4.0 11.0 0.00 0.00 0.00 28 1006.6
20260505205558 84 244 4.0 11.0 0.00 0.00 0.00 27 1006.6
20260505205056 84 26 3.0 11.0 0.00 0.00 0.00 27 1006.6
20260505204557 84 269 4.0 11.0 0.00 0.00 0.00 26 1006.6
20260505204057 84 148 4.0 10.0 0.00 0.00 0.00 26 1006.7
20260505203554 84 346 4.0 10.0 0.00 0.00 0.00 26 1006.6
20260505203124 85 59 3.0 17.0 0.00 0.00 0.00 27 1006.7
20260505202554 85 360 4.0 17.0 0.00 0.00 0.00 27 1006.7
20260505202058 85 317 3.0 10.0 0.00 0.00 0.00 27 1006.8
20260505201558 85 274 2.0 8.0 0.00 0.00 0.00 28 1006.7
20260505201057 84 280 2.0 9.0 0.00 0.00 0.00 28 1006.8
20260505200557 84 283 2.0 11.0 0.00 0.00 0.00 29 1006.8
20260505200057 84 279 4.0 11.0 0.00 0.00 0.00 28 1006.8
20260505195558 85 58 3.0 10.0 0.00 0.00 0.00 27 1006.8
20260505195058 85 360 4.0 10.0 0.00 0.00 0.00 27 1006.9
20260505194558 85 134 4.0 10.0 0.00 0.00 0.00 27 1007.2
20260505194055 85 351 3.0 10.0 0.00 0.00 0.00 28 1006.9
20260505193558 85 40 3.0 9.0 0.00 0.00 0.00 29 1007.1
20260505193102 85 63 2.0 9.0 0.00 0.00 0.00 29 1007.3
20260505192557 85 273 3.0 9.0 0.00 0.00 0.00 30 1007.3
20260505192054 85 296 2.0 9.0 0.00 0.00 0.00 28 1007.4
20260505191603 85 324 2.0 8.0 0.00 0.00 0.00 29 1007.3
20260505191055 85 210 3.0 8.0 0.00 0.00 0.00 29 1007.5
20260505190554 85 175 2.0 9.0 0.00 0.00 0.00 30 1007.4
20260505190054 85 190 3.0 9.0 0.00 0.00 0.00 28 1007.5
20260505185557 85 82 3.0 9.0 0.00 0.00 0.00 27 1007.6
20260505185057 85 109 2.0 11.0 0.00 0.00 0.00 30 1007.7
20260505184555 85 360 2.0 11.0 0.00 0.00 0.00 29 1007.7
20260505184054 85 340 4.0 11.0 0.00 0.00 0.00 29 1007.9
20260505183556 85 296 3.0 10.0 0.00 0.00 0.00 30 1007.9
20260505183059 85 188 3.0 9.0 0.00 0.00 0.00 30 1007.9
20260505182557 85 192 3.0 11.0 0.00 0.00 0.00 31 1008.0
20260505182101 85 360 3.0 11.0 0.00 0.00 0.00 32 1007.9
20260505181559 84 360 3.0 9.0 0.00 0.00 0.00 32 1007.8
20260505181055 84 291 3.0 9.0 0.00 0.00 0.00 32 1007.9
20260505180554 84 360 3.0 9.0 0.00 0.00 0.00 33 1008.0
20260505175557 84 360 2.0 9.0 0.00 0.00 0.00 34 1007.9
20260505175059 84 360 3.0 9.0 0.00 0.00 0.00 33 1008.1
20260505174558 84 112 3.0 9.0 0.00 0.00 0.00 32 1008.2
20260505174057 84 360 4.0 9.0 0.00 0.00 0.00 33 1008.3
20260505173558 83 360 2.0 6.0 0.00 0.00 0.00 35 1008.3
20260505173103 83 360 2.0 7.0 0.00 0.00 0.00 35 1008.5
20260505172600 83 360 3.0 7.0 0.00 0.00 0.00 35 1008.6
20260505172057 83 360 2.0 6.0 0.00 0.00 0.00 36 1008.7
20260505171559 83 360 2.0 6.0 0.00 0.00 0.00 36 1008.7
20260505171057 83 360 2.0 5.0 0.00 0.00 0.00 35 1008.8
20260505170554 83 174 2.0 4.0 0.00 0.00 0.00 36 1008.9
20260505170059 82 315 1.0 4.0 0.00 0.00 0.00 37 1008.8
20260505165555 82 256 2.0 9.0 0.00 0.00 0.00 38 1008.9
20260505165056 82 295 1.0 9.0 0.00 0.00 0.00 39 1009.1
20260505164602 81 311 2.0 7.0 0.00 0.00 0.00 37 1009.1
20260505164057 81 343 2.0 7.0 0.00 0.00 0.00 39 1009.2
20260505163554 81 311 2.0 5.0 0.00 0.00 0.00 38 1009.2
20260505163102 81 333 1.0 5.0 0.00 0.00 0.00 39 1009.3
20260505162554 81 250 1.0 5.0 0.00 0.00 0.00 40 1009.4
20260505162058 80 360 1.0 5.0 0.00 0.00 0.00 40 1009.5
20260505161602 80 360 2.0 5.0 0.00 0.00 0.00 42 1009.5
20260505161057 79 360 1.0 4.0 0.00 0.00 0.00 43 1009.5
20260505160556 79 360 2.0 9.0 0.00 0.00 0.00 41 1009.6
20260505160108 78 360 2.0 9.0 0.00 0.00 0.00 43 1009.6
20260505153058 77 46 1.0 4.0 0.00 0.00 0.00 44 1010.1
20260505152558 76 360 1.0 4.0 0.00 0.00 0.00 46 1010.1
20260505152054 76 52 2.0 4.0 0.00 0.00 0.00 45 1010.2
20260505151558 76 360 1.0 4.0 0.00 0.00 0.00 46 1010.3
20260505151054 75 360 1.0 5.0 0.00 0.00 0.00 46 1010.2
20260505150558 75 360 1.0 5.0 0.00 0.00 0.00 48 1010.2
20260505140557 71 117 1.0 4.0 0.00 0.00 0.00 54 1010.7
20260505140113 71 118 1.0 5.0 0.00 0.00 0.00 54 1010.6
20260505124559 65 360 1.0 3.0 0.00 0.00 0.00 66 1010.1
20260505124055 64 94 1.0 4.0 0.00 0.00 0.00 67 1010.2
20260505123555 64 0 0.0 4.0 0.00 0.00 0.00 68 1010.3
20260505123058 64 105 1.0 4.0 0.00 0.00 0.00 69 1010.2
20260505122555 63 102 0.0 2.0 0.00 0.00 0.00 71 1010.3
20260505122057 63 0 0.0 2.0 0.00 0.00 0.00 72 1010.3
20260505121602 62 111 0.0 2.0 0.00 0.00 0.00 72 1010.4
20260505121058 62 0 0.0 2.0 0.00 0.00 0.00 74 1010.3
20260505120558 61 360 0.0 2.0 0.00 0.00 0.00 75 1010.5
20260505120112 61 0 0.0 2.0 0.00 0.00 0.00 75 1010.6
20260505115555 60 0 0.0 2.0 0.00 0.00 0.00 76 1010.5
20260505115057 59 74 0.0 2.0 0.00 0.00 0.00 77 1010.5
20260505114600 59 360 0.0 2.0 0.00 0.00 0.00 79 1010.5
20260505114054 58 360 0.0 2.0 0.00 0.00 0.00 79 1010.3
20260505113601 58 0 0.0 2.0 0.00 0.00 0.00 79 1010.3
20260505113104 58 0 0.0 2.0 0.00 0.00 0.00 80 1010.3
20260505112555 58 306 0.0 2.0 0.00 0.00 0.00 80 1010.4
20260505112055 57 0 0.0 2.0 0.00 0.00 0.00 80 1010.3
20260505111556 57 311 0.0 2.0 0.00 0.00 0.00 81 1010.4
20260505111058 56 83 0.0 2.0 0.00 0.00 0.00 81 1010.2
20260505110555 56 0 0.0 2.0 0.00 0.00 0.00 80 1010.2
20260505102057 55 0 0.0 0.0 0.00 0.00 0.00 76 1010.3
20260505101604 55 0 0.0 1.0 0.00 0.00 0.00 76 1010.4
20260505101058 55 0 0.0 1.0 0.00 0.00 0.00 76 1010.3
20260505100557 55 0 0.0 0.0 0.00 0.00 0.00 76 1010.2
20260505095557 55 0 0.0 2.0 0.00 0.00 0.00 75 1010.1
20260505095100 55 0 0.0 2.0 0.00 0.00 0.00 76 1010.0
20260505094602 55 0 0.0 2.0 0.00 0.00 0.00 76 1009.9
20260505094055 55 0 0.0 2.0 0.00 0.00 0.00 76 1009.7
20260505093557 55 0 0.0 2.0 0.00 0.00 0.00 76 1009.7
20260505093058 55 0 0.0 2.0 0.00 0.00 0.00 76 1009.8
20260505092557 55 0 0.0 2.0 0.00 0.00 0.00 76 1009.6
20260505092056 55 0 0.0 2.0 0.00 0.00 0.00 76 1009.6
20260505091611 55 0 0.0 2.0 0.00 0.00 0.00 76 1009.5
20260505091056 54 0 0.0 2.0 0.00 0.00 0.00 76 1009.5
20260505090557 54 0 0.0 2.0 0.00 0.00 0.00 77 1009.5
20260505090059 54 0 0.0 2.0 0.00 0.00 0.00 77 1009.6
20260505085555 54 0 0.0 2.0 0.00 0.00 0.00 77 1009.5
20260505085057 54 0 0.0 2.0 0.00 0.00 0.00 77 1009.5
20260505084606 54 0 0.0 2.0 0.00 0.00 0.00 77 1009.5
20260505084055 54 0 0.0 2.0 0.00 0.00 0.00 77 1009.6
20260505083559 54 0 0.0 2.0 0.00 0.00 0.00 77 1009.5
20260505083106 54 0 0.0 2.0 0.00 0.00 0.00 77 1009.5
20260505082555 53 0 0.0 1.0 0.00 0.00 0.00 77 1009.5
20260505082055 54 0 0.0 2.0 0.00 0.00 0.00 76 1009.5
20260505081556 54 0 0.0 0.0 0.00 0.00 0.00 76 1009.5
20260505081055 54 0 0.0 0.0 0.00 0.00 0.00 76 1009.5
20260505080554 54 0 0.0 0.0 0.00 0.00 0.00 75 1009.6
20260505080058 54 0 0.0 0.0 0.00 0.00 0.00 75 1009.6
20260505075555 54 0 0.0 0.0 0.00 0.00 0.00 75 1009.5
20260505075055 54 0 0.0 0.0 0.00 0.00 0.00 75 1009.5
20260505074556 54 0 0.0 2.0 0.00 0.00 0.00 75 1009.5
20260505074056 54 0 0.0 2.0 0.00 0.00 0.00 75 1009.5
20260505073556 54 0 0.0 2.0 0.00 0.00 0.00 75 1009.5
20260505073058 54 0 0.0 2.0 0.00 0.00 0.00 75 1009.5
20260505072600 54 0 0.0 2.0 0.00 0.00 0.00 74 1009.5
20260505072058 54 0 0.0 0.0 0.00 0.00 0.00 73 1009.5
20260505071601 55 0 0.0 0.0 0.00 0.00 0.00 72 1009.5
20260505071055 55 0 0.0 0.0 0.00 0.00 0.00 72 1009.5
20260505070557 55 0 0.0 0.0 0.00 0.00 0.00 71 1009.5
20260505070105 55 0 0.0 0.0 0.00 0.00 0.00 71 1009.5
20260505065556 56 0 0.0 0.0 0.00 0.00 0.00 71 1009.6
20260505065056 56 0 0.0 0.0 0.00 0.00 0.00 70 1009.5
20260505064558 56 0 0.0 0.0 0.00 0.00 0.00 69 1009.6
20260505064055 56 0 0.0 0.0 0.00 0.00 0.00 69 1009.5
20260505063558 57 0 0.0 2.0 0.00 0.00 0.00 69 1009.5
20260505063057 57 0 0.0 2.0 0.00 0.00 0.00 68 1009.6
20260505062602 57 0 0.0 0.0 0.00 0.00 0.00 68 1009.6
20260505062056 57 0 0.0 2.0 0.00 0.00 0.00 67 1009.6
20260505061614 57 0 0.0 2.0 0.00 0.00 0.00 67 1009.7
20260505061057 57 0 0.0 2.0 0.00 0.00 0.00 67 1009.7
20260505060554 58 17 0.0 2.0 0.00 0.00 0.00 66 1009.6
20260505060100 58 0 0.0 2.0 0.00 0.00 0.00 66 1009.6
20260505055557 58 0 0.0 2.0 0.00 0.00 0.00 66 1009.6
20260505055058 58 0 0.0 2.0 0.00 0.00 0.00 66 1009.7
20260505054557 58 16 0.0 2.0 0.00 0.00 0.00 66 1009.7
20260505054057 58 0 0.0 2.0 0.00 0.00 0.00 66 1009.7
20260505053557 58 0 0.0 2.0 0.00 0.00 0.00 65 1009.8
20260505053058 58 0 0.0 2.0 0.00 0.00 0.00 64 1009.9
20260505052555 58 0 0.0 2.0 0.00 0.00 0.00 63 1009.8
20260505052055 59 0 0.0 2.0 0.00 0.00 0.00 63 1009.9
20260505051600 59 0 0.0 2.0 0.00 0.00 0.00 62 1009.9
20260505051055 59 0 0.0 2.0 0.00 0.00 0.00 61 1009.8
20260505050555 59 48 0.0 2.0 0.00 0.00 0.00 61 1009.9
20260505041601 61 293 0.0 2.0 0.00 0.00 0.00 56 1009.9
20260505041058 61 37 0.0 2.0 0.00 0.00 0.00 55 1009.9
20260505040558 61 284 0.0 2.0 0.00 0.00 0.00 55 1009.9
20260505040103 61 311 0.0 2.0 0.00 0.00 0.00 55 1010.0
20260505035557 61 11 0.0 2.0 0.00 0.00 0.00 54 1009.9
20260505035057 62 0 0.0 2.0 0.00 0.00 0.00 53 1009.9
20260505034601 62 61 0.0 2.0 0.00 0.00 0.00 53 1009.9
20260505034101 62 156 0.0 2.0 0.00 0.00 0.00 52 1010.0
20260505033558 62 173 0.0 2.0 0.00 0.00 0.00 52 1010.0
20260505033105 62 300 0.0 2.0 0.00 0.00 0.00 51 1010.0
20260505032554 62 13 0.0 3.0 0.00 0.00 0.00 51 1010.1
20260505032058 62 49 0.0 3.0 0.00 0.00 0.00 51 1010.1
20260505031557 63 286 0.0 2.0 0.00 0.00 0.00 50 1010.1
20260505031054 63 10 0.0 2.0 0.00 0.00 0.00 50 1010.1
20260505030558 63 331 0.0 2.0 0.00 0.00 0.00 49 1010.0
20260505030056 63 311 0.0 2.0 0.00 0.00 0.00 49 1010.2
20260505025558 63 260 0.0 2.0 0.00 0.00 0.00 49 1010.2
20260505025056 63 48 0.0 2.0 0.00 0.00 0.00 49 1010.2
20260505024556 63 119 0.0 5.0 0.00 0.00 0.00 48 1010.2
20260505024058 63 54 0.0 5.0 0.00 0.00 0.00 47 1010.3
20260505023555 63 151 1.0 5.0 0.00 0.00 0.00 46 1010.1
20260505023057 64 0 1.0 3.0 0.00 0.00 0.00 45 1010.2
20260505022556 64 0 0.0 3.0 0.00 0.00 0.00 44 1010.3
20260505022102 64 163 0.0 3.0 0.00 0.00 0.00 44 1010.2
20260505021601 64 50 0.0 3.0 0.00 0.00 0.00 43 1010.3
20260505021054 64 80 0.0 3.0 0.00 0.00 0.00 43 1010.4
20260505020557 64 71 0.0 2.0 0.00 0.00 0.00 43 1010.3
20260505020059 64 90 0.0 2.0 0.00 0.00 0.00 42 1010.3
20260505015557 64 90 0.0 2.0 0.00 0.00 0.00 42 1010.3
20260505015057 64 0 0.0 2.0 0.00 0.00 0.00 42 1010.1
20260505014556 64 106 0.0 2.0 0.00 0.00 0.00 42 1010.2
20260505014054 65 0 0.0 2.0 0.00 0.00 0.00 42 1010.1
20260505013554 65 80 0.0 2.0 0.00 0.00 0.00 42 1010.0
20260505013058 65 74 0.0 2.0 0.00 0.00 0.00 42 1010.1
20260505012555 65 74 0.0 2.0 0.00 0.00 0.00 41 1010.0
20260505012058 65 54 0.0 2.0 0.00 0.00 0.00 41 1010.0
20260505011613 66 0 0.0 2.0 0.00 0.00 0.00 41 1010.0
20260505011059 66 0 0.0 2.0 0.00 0.00 0.00 40 1009.9
20260505010555 66 0 0.0 2.0 0.00 0.00 0.00 40 1009.7
20260505010106 66 0 0.0 2.0 0.00 0.00 0.00 40 1009.7
20260505005555 66 100 0.0 3.0 0.00 0.00 0.00 40 1009.8
20260505005057 67 17 0.0 3.0 0.00 0.00 0.00 39 1009.6
20260505004600 67 0 0.0 2.0 0.00 0.00 0.00 39 1009.6
20260505004055 67 0 0.0 2.0 0.00 0.00 0.00 39 1009.5
20260505003554 67 115 0.0 2.0 0.00 0.00 0.00 38 1009.4
20260505003058 68 10 0.0 2.0 0.00 0.00 0.00 38 1009.4
20260505002554 68 81 0.0 2.0 0.00 0.00 0.00 38 1009.3
20260505002054 68 64 0.0 2.0 0.00 0.00 0.00 37 1009.2
20260505001557 68 254 0.0 3.0 0.00 0.00 0.00 37 1009.2
20260505001055 69 0 0.0 3.0 0.00 0.00 0.00 36 1009.0
20260505000554 69 0 1.0 3.0 0.00 0.00 0.00 36 1008.9
20260505000107 69 246 1.0 3.0 0.00 0.00 0.00 36 1008.9
20260504235558 69 131 1.0 2.0 0.00 0.00 0.00 36 1008.7
20260504235055 70 55 1.0 2.0 0.00 0.00 0.00 35 1008.7
20260504234611 70 289 1.0 4.0 0.00 0.00 0.00 35 1008.5
20260504234057 70 360 1.0 4.0 0.00 0.00 0.00 35 1008.5
20260504233555 70 132 1.0 4.0 0.00 0.00 0.00 34 1008.3
20260504233059 71 71 1.0 4.0 0.00 0.00 0.00 34 1008.3
20260504232555 71 279 1.0 4.0 0.00 0.00 0.00 34 1008.2
20260504232056 71 267 1.0 4.0 0.00 0.00 0.00 34 1008.1
20260504231556 71 315 0.0 4.0 0.00 0.00 0.00 34 1008.0
20260504231055 72 319 1.0 4.0 0.00 0.00 0.00 33 1008.0
20260504230557 72 304 0.0 6.0 0.00 0.00 0.00 33 1007.9
20260504230057 72 304 1.0 6.0 0.00 0.00 0.00 33 1007.9
20260504225555 72 327 2.0 6.0 0.00 0.00 0.00 33 1007.9
20260504225056 72 53 2.0 6.0 0.00 0.00 0.00 32 1007.9
20260504224556 73 313 1.0 5.0 0.00 0.00 0.00 32 1008.0
20260504224054 73 265 1.0 4.0 0.00 0.00 0.00 32 1007.9
20260504223555 73 316 1.0 6.0 0.00 0.00 0.00 31 1007.9
20260504223056 73 222 2.0 6.0 0.00 0.00 0.00 31 1008.0
20260504222555 73 277 1.0 4.0 0.00 0.00 0.00 32 1008.0
20260504222101 74 290 2.0 4.0 0.00 0.00 0.00 31 1008.1
20260504221555 74 288 1.0 4.0 0.00 0.00 0.00 31 1008.1
20260504221055 74 287 1.0 5.0 0.00 0.00 0.00 30 1008.1
20260504220555 74 69 1.0 5.0 0.00 0.00 0.00 30 1008.1
20260504220104 74 279 2.0 5.0 0.00 0.00 0.00 30 1008.2
20260504215555 74 59 1.0 5.0 0.00 0.00 0.00 31 1008.3
20260504215057 74 254 2.0 8.0 0.00 0.00 0.00 30 1008.4
20260504214558 74 273 1.0 8.0 0.00 0.00 0.00 30 1008.5
20260504214055 74 223 2.0 8.0 0.00 0.00 0.00 30 1008.6
20260504213554 75 298 2.0 7.0 0.00 0.00 0.00 29 1008.6
20260504213110 75 280 2.0 7.0 0.00 0.00 0.00 29 1008.5
20260504212555 75 279 0.0 5.0 0.00 0.00 0.00 29 1008.6
20260504212058 74 42 1.0 7.0 0.00 0.00 0.00 29 1008.7